Regional Weather Roundup
Issued by NWS

Home | Current Version | Previous Version | Text Only | Print | Product List | Glossary On
Versions: 1 2 3 4 5 6 7 8 9 10 11 12 13 14 15 16 17 18 19 20 21 22 23 24 25 26 27 28 29 30 31 32 33 34 35 36 37 38 39 40 41 42 43 44 45 46 47 48 49 50
000
ASUS45 KBOU 310910
RWRCO

WEATHER ROUNDUP FOR COLORADO
NATIONAL WEATHER SERVICE PUEBLO CO
300 AM MDT FRI JUL 31 2015

NOTE: "FAIR" INDICATES FEW OR NO CLOUDS BELOW 12000 FEET WITH NO
SIGNIFICANT WEATHER AND/OR OBSTRUCTIONS TO VISIBILITY.

COZ001>005-013-030-031-311000-
...NORTHWEST COLORADO...

CITY           SKY/WX    TMP DP  RH WIND       PRES   REMARKS
CRAIG          CLEAR     46  32  58 CALM      30.36S
HAYDEN         CLEAR     55  30  38 E10       30.38S
MEEKER         CLEAR     49  32  52 CALM      30.38S
MOUNT WERNER   NOT AVBL
STEAMBOAT SPGS NOT AVBL
WALDEN         FAIR      48  36  61 SE3       30.52S
$$

COZ006>008-011-311000-
...WEST CENTRAL VALLEYS...

CITY           SKY/WX    TMP DP  RH WIND       PRES   REMARKS
GRAND JUNCTION CLEAR     63  27  25 E6        30.22S
MONTROSE       PTCLDY    64  36  35 S6        30.33R
EAGLE          CLEAR     54  30  40 E6        30.43S
RIFLE          CLEAR     59  29  31 CALM      30.31R
DELTA          NOT AVBL
NUCLA          FAIR      66  37  34 CALM      30.40S
$$

COZ017>023-064>068-311000-
...SOUTHWEST COLORADO...

CITY           SKY/WX    TMP DP  RH WIND       PRES   REMARKS
DURANGO        LGT RAIN  60  58  92 N5        30.44F
CORTEZ         PTCLDY    65  57  75 NW3       30.39S
PAGOSA SPRINGS DRIZZLE   59  56  91 CALM      30.50F
TELLURIDE      CLOUDY    61  42  49 CALM      30.60S
WOLF CREEK PAS NOT AVBL
$$

COZ009-010-012-014-032>034-037-058>063-311000-
...CENTRAL COLORADO...

CITY           SKY/WX    TMP DP  RH WIND       PRES   REMARKS
ASPEN          CLEAR     56  40  55 SW7       30.47S
BUENA VISTA    MOCLDY    55  52  88 CALM      30.54S
COPPER MTN     NOT AVBL
BERTHOUD PASS  FAIR      43  32  65 SE14      30.85S
COTTONWOOD PAS CLOUDY    59  46  63 E5        30.66
GUNNISON       PTCLDY    55  43  62 N10       30.51F
KREMMLING      CLEAR     50  34  53 CALM      30.49S
LEADVILLE      CLEAR     47  42  83 NE6       30.65F
MONARCH PASS   CLOUDY    50  39  66 NE5       30.90F
SALIDA         FAIR      60  50  68 W3        30.58S
NIWOT RIDGE    NOT AVBL
SUNLIGHT       CLEAR     55  34  44 CALM      30.72S
WILKERSON PASS PTCLDY    48  43  81 NW3       30.78F
$$

COZ069>075-311000-
...SAN LUIS VALLEY/SANGRE DE CRISTO MOUNTAINS...

CITY           SKY/WX    TMP DP  RH WIND       PRES   REMARKS
ALAMOSA        MOCLDY    56  52  86 NE7       30.47F
LA VETA PASS   PTCLDY    50  43  76 MISG      30.66F
SAGUACHE       MOCLDY    54  50  87 N6        30.52F
$$

COZ035-036-038>040-311000-
...NORTHERN COLORADO FRONT RANGE...

CITY           SKY/WX    TMP DP  RH WIND       PRES   REMARKS
DENVER INTL AP MOCLDY    68  52  56 SW13      30.32S
DMNS CITY PARK NOT AVBL
AURORA         PTCLDY    65  53  65 SW6       30.35S
FRONT RANGE AP NOT AVBL
ERIE MUNI ARPT NOT AVBL
BOULDER MUN AP NOT AVBL
CENTENNIAL     PTCLDY    64  53  67 CALM      30.35F
BROOMFIELD     PTCLDY    66  55  68 NW9       30.35S
LOVELAND       MOCLDY    61  55  82 N7        30.32S
LONGMONT       NOT AVBL
$$

COZ041-046-047-076>085-087-088-311000-
...PIKES PEAK/PALMER DIVIDE AND SOUTHERN FOOTHILLS...

CITY           SKY/WX    TMP DP  RH WIND       PRES   REMARKS
COLO. SPRINGS  PTCLDY    60  55  83 N5        30.41F
A. F. ACADEMY  CLEAR     55  51  89 N7        30.42F
ELLICOTT       FAIR       1 N/A N/A N6        30.39F WCI -10
FALCON         NOT AVBL
FORT CARSON    CLEAR     58  54  84 NW7       30.37F
LIMON          CLEAR     56  54  93 CALM      30.35F
MONUMENT HILL  CLEAR     57  54  88 SW8       30.45F
TRINIDAD       CLEAR     65  55  70 W12       30.34F
$$

COZ042>045-048>051-090-091-311000-
...NORTHEAST COLORADO...

CITY           SKY/WX    TMP DP  RH WIND       PRES   REMARKS
GREELEY ARPT   PTCLDY    63  55  77 N7        30.30S
AKRON          CLEAR     66  55  67 SW9       30.29F
BURLINGTON     CLEAR     62  58  86 CALM      30.28F
WRAY           FAIR      58  58 100 W5        30.26S
STERLING       NOT AVBL
HOLYOKE        NOT AVBL
FORT MORGAN    FAIR      63  56  79 CALM      30.29F
$$

COZ086-089-092>099-311000-
...SOUTHEAST COLORADO...

CITY           SKY/WX    TMP DP  RH WIND       PRES   REMARKS
PUEBLO         PTCLDY    67  59  75 N8        30.30F
LA JUNTA       CLEAR     66  64  93 E7        30.25F
LAMAR          PTCLDY    66  64  93 SE7       30.23F FOG
SPRINGFIELD      N/A     64  64 100 SW9       30.30S
$$




USA.gov is the U.S. government's official web portal to all federal, state and local government web resources and services.